Wind_Speed
29 28 28 26 25 23 21 20 19 18 17 17 16 15 14 14 13 13 14 15 15 15 15 15 15 15 14 12 10 10 8 8 9 10 12 9 6 6 9 8 10 15 20 18 16 18 17 17 17 15 12 10 8 9 8 8 7 7 6 6 5 2 2 4 5 4 6 2 4 7 8 8 9 9 6 9 10 10 11 8 11 10 9 16 21 28 31 30
30 29 28 27 25 23 21 20 19 18 17 17 17 16 15 14 13 13 13 15 15 14 14 14 15 15 13 10 10 9 7 9 12 12 11 9 9 11 11 8 11 18 23 19 19 21 17 15 16 15 11 8 8 9 8 8 7 7 6 7 3 3 6 9 4 7 9 5 6 8 9 8 8 10 8 8 9 11 11 10 11 11 14 20 25 30 31 30
31 30 29 28 26 24 21 19 18 17 17 18 18 17 16 14 14 14 13 14 14 14 13 14 15 13 10 9 9 7 6 10 11 6 2 5 10 13 12 10 14 21 25 20 20 21 17 16 17 15 11 9 8 9 9 7 7 8 7 7 3 1 8 3 5 6 7 6 9 9 8 6 8 9 9 8 9 11 10 10 12 13 16 19 23 27 29 30
31 31 30 29 26 24 21 19 18 17 17 19 19 19 17 16 15 15 15 14 14 14 14 14 13 10 8 8 9 5 6 10 5 6 6 8 9 12 13 13 17 24 28 20 18 20 16 16 15 14 11 9 9 9 10 7 6 7 7 7 2 3 6 3 6 5 6 2 3 7 8 6 8 9 9 10 7 6 6 8 12 15 18 19 21 24 26 27
32 32 31 29 27 24 21 19 18 17 17 19 20 20 19 17 16 16 16 15 14 14 14 13 10 7 6 8 7 3 7 6 3 7 6 10 10 9 11 15 21 25 27 21 18 20 17 15 14 13 11 9 9 9 10 10 8 7 9 10 6 6 3 4 2 4 4 2 3 4 6 6 8 7 8 10 6 2 2 6 12 16 19 21 21 22 23 24
32 33 32 30 27 24 21 18 17 17 17 19 20 20 20 19 18 17 16 16 13 13 13 10 6 5 6 8 5 5 8 2 5 8 9 12 12 5 10 16 24 25 24 22 19 19 17 15 13 12 10 10 11 10 9 11 11 8 9 10 9 9 4 1 1 1 3 2 4 3 5 7 7 8 7 9 6 1 4 9 12 17 19 21 22 21 22 22
33 33 33 31 28 24 20 18 17 17 18 19 20 21 21 21 19 17 16 14 12 11 9 6 5 5 6 7 4 8 10 1 6 9 13 13 13 2 11 17 25 24 23 22 19 18 16 16 14 12 10 10 12 11 10 11 12 11 10 10 8 7 6 4 2 2 3 2 2 2 4 7 7 7 7 12 6 5 10 13 14 18 19 21 21 21 22 22
33 34 33 31 28 24 20 17 16 17 18 20 21 22 23 22 19 15 12 11 10 8 5 5 6 5 5 5 6 9 8 2 7 9 12 11 11 1 12 18 23 23 22 22 19 17 16 16 16 12 11 10 10 10 11 10 12 13 13 12 8 6 7 6 5 5 4 5 3 3 5 7 6 4 3 11 12 8 9 13 17 18 18 19 19 20 21 21
33 34 33 31 28 24 20 17 16 17 18 20 22 24 23 19 15 11 9 8 7 5 4 6 7 6 5 6 9 7 1 6 6 7 8 6 4 6 14 17 21 21 20 20 19 19 15 14 16 13 11 10 10 11 11 11 8 10 14 14 11 10 8 6 8 8 6 6 4 5 8 6 6 5 4 7 9 6 8 13 15 18 18 17 18 19 20 21
33 34 33 31 27 23 19 17 16 16 18 20 23 23 20 15 12 10 8 6 5 7 9 9 8 7 7 7 10 4 4 5 3 5 6 3 5 10 13 15 20 19 17 18 18 19 15 13 15 13 11 9 9 10 10 11 6 5 9 12 14 13 10 8 8 9 8 9 7 7 8 6 6 6 5 6 6 7 10 12 14 16 17 18 17 18 19 19
33 33 33 31 27 23 19 17 15 15 18 21 24 22 16 13 12 10 7 6 9 12 10 8 7 7 8 10 9 2 5 4 3 3 4 1 6 11 11 12 18 18 16 16 17 18 17 15 13 10 9 7 9 11 11 13 10 8 8 8 12 14 13 12 11 10 9 9 9 9 9 6 7 4 3 5 5 8 11 12 13 15 16 17 17 18 17 17
32 33 33 30 26 23 19 17 15 14 18 22 24 20 14 14 12 8 6 10 13 10 5 5 6 6 9 10 5 6 6 3 2 3 1 1 4 9 9 9 15 18 15 14 15 17 18 16 13 12 8 4 8 9 7 11 12 12 11 10 11 13 14 15 14 13 11 9 9 10 10 7 8 7 4 6 7 9 11 12 13 14 14 15 16 16 15 18
32 32 32 30 26 23 19 18 15 14 18 22 24 18 13 14 11 6 7 13 11 5 3 3 3 6 9 5 3 6 5 3 2 3 2 2 4 7 8 9 12 16 15 14 13 15 17 16 14 14 10 6 8 3 4 7 10 12 12 10 10 11 12 15 15 15 15 12 11 11 8 6 7 9 8 9 11 11 11 12 12 12 13 15 15 14 15 19
32 32 32 29 26 23 20 18 16 15 17 22 23 16 13 15 9 5 8 13 7 2 4 3 2 6 9 1 7 5 2 1 3 4 3 4 6 6 8 9 11 15 15 13 11 12 15 16 14 13 12 11 9 4 4 8 9 10 12 9 9 9 10 14 15 16 16 13 14 12 5 6 7 8 12 10 12 13 11 11 12 13 13 14 15 15 16 18
31 32 32 29 26 22 19 18 16 16 17 22 23 14 12 14 7 6 9 11 6 3 4 3 5 7 8 3 6 3 1 1 2 2 3 5 7 6 8 9 11 14 13 10 10 10 13 15 13 10 10 12 12 8 6 8 8 9 10 9 10 9 9 13 16 18 16 13 16 14 6 6 6 9 14 13 13 14 10 9 12 14 15 15 15 16 15 17
31 31 31 29 25 22 19 17 16 17 18 21 21 12 10 12 6 7 8 10 7 3 3 5 7 8 7 1 4 1 0 2 4 3 2 5 8 6 8 9 10 14 12 10 9 8 11 12 10 10 10 11 11 9 7 7 8 9 9 9 10 11 10 10 13 18 17 14 16 15 9 5 5 12 15 15 16 16 13 13 15 14 16 17 15 15 16 16
30 30 31 28 25 22 18 16 16 17 17 20 18 10 10 11 6 8 10 11 8 3 5 9 7 7 5 3 1 2 4 6 5 2 2 4 7 5 8 8 10 13 12 12 9 7 9 9 8 9 10 10 10 9 8 9 9 8 9 10 11 13 12 10 10 15 18 16 15 17 13 6 8 13 16 17 15 15 14 16 15 12 13 15 15 15 16 16
29 29 30 28 25 22 17 15 16 16 18 19 15 11 12 11 9 11 13 9 6 7 9 9 7 6 2 3 1 3 7 6 3 3 3 4 7 7 9 8 8 12 12 11 10 9 9 9 9 9 9 10 10 10 10 10 10 9 10 9 11 13 13 13 11 12 17 18 16 16 14 11 12 11 14 18 17 17 15 12 13 14 14 15 16 15 15 16
29 28 29 28 26 22 17 14 15 16 18 17 16 14 14 12 10 11 13 10 7 5 3 2 4 4 2 4 3 6 6 5 4 4 3 4 6 9 10 7 8 13 11 9 11 12 10 8 10 10 10 12 14 14 13 13 10 9 10 10 12 12 12 14 13 11 17 16 17 16 14 14 14 11 11 15 17 17 12 11 14 15 14 14 14 14 15 16
29 28 28 28 26 23 19 14 13 16 16 17 21 16 9 7 5 5 7 8 3 5 4 2 4 5 3 3 5 8 5 6 5 1 1 3 7 10 10 8 10 12 11 10 11 12 10 9 11 12 13 15 17 17 16 16 12 9 9 10 12 12 12 13 14 14 15 13 15 17 16 14 12 13 16 16 16 14 12 16 18 15 14 14 14 13 15 16
30 29 27 27 26 23 20 15 12 14 13 17 22 11 2 7 6 3 7 5 2 2 4 2 4 4 4 5 6 8 5 4 2 4 3 5 7 8 8 9 11 9 11 13 10 11 11 11 14 16 17 16 16 17 16 17 15 10 9 10 10 11 12 12 13 16 14 10 11 16 17 16 14 14 15 14 16 16 17 19 16 15 16 15 15 15 14 14
30 29 28 26 24 22 20 16 11 12 12 14 13 6 6 8 7 7 8 7 4 3 3 2 4 2 4 2 2 6 7 6 3 5 3 5 8 8 7 9 11 9 11 13 9 10 12 13 16 17 16 15 15 15 17 17 15 12 9 9 9 8 10 10 10 14 13 8 9 15 15 16 17 16 15 17 18 15 19 20 16 16 17 16 16 14 14 14
30 30 29 26 24 22 19 15 11 10 11 11 6 7 6 6 7 7 7 8 4 5 5 4 4 1 3 0 2 7 9 4 2 5 3 7 7 6 6 8 12 10 11 14 11 10 10 11 16 17 15 16 16 14 15 15 13 12 9 8 9 9 9 8 8 13 14 9 9 13 13 13 15 15 17 21 17 12 18 19 15 13 14 16 18 15 14 15
30 31 30 27 24 20 17 15 13 11 9 7 4 8 8 7 8 8 7 8 6 5 4 1 3 2 4 2 3 8 6 2 3 3 2 8 4 1 7 9 11 12 11 14 15 14 11 10 13 18 16 16 16 15 13 11 10 13 14 11 10 11 11 10 9 11 13 13 10 11 11 10 13 15 16 17 18 18 19 17 14 14 14 15 17 15 15 16
30 31 30 27 23 19 17 15 10 6 6 5 4 10 10 8 8 8 7 7 5 6 6 4 4 0 2 3 4 7 5 3 4 2 2 7 7 3 6 7 8 10 12 15 16 14 13 12 11 16 18 17 16 14 14 12 9 11 15 15 14 14 13 12 12 9 9 11 12 12 11 9 12 16 16 15 17 21 18 17 19 18 16 15 15 15 16 17
31 32 30 25 21 18 15 8 4 8 8 3 7 12 11 9 7 6 5 6 4 6 7 6 4 1 0 2 2 5 5 3 2 0 1 3 6 6 6 5 6 9 12 11 11 9 10 14 11 12 15 17 16 14 14 14 10 9 10 14 17 17 15 14 13 10 8 8 10 15 12 9 11 15 17 16 16 20 18 19 20 17 17 16 15 16 16 17
32 31 29 24 18 14 11 7 9 11 7 4 10 13 12 9 6 5 5 6 4 5 6 5 2 1 1 2 4 7 3 1 2 4 1 3 3 5 6 6 6 7 9 7 7 7 10 15 15 13 13 15 14 12 13 14 11 9 8 10 13 15 17 16 13 11 9 9 10 14 14 10 10 12 15 17 17 19 19 18 18 16 17 17 16 16 17 17
32 30 28 22 12 7 7 9 12 8 5 8 11 13 12 7 5 5 6 5 2 3 2 4 3 1 2 2 4 6 4 4 4 4 2 4 5 5 8 9 8 7 7 7 8 6 9 15 17 15 13 12 12 11 12 15 13 10 10 10 9 10 14 16 14 11 9 10 11 13 14 11 10 11 13 17 19 19 20 20 19 18 18 20 19 18 17 17
32 29 24 17 6 4 5 8 10 7 8 10 11 12 11 6 5 5 6 5 3 4 0 2 3 2 4 4 2 3 3 2 4 2 1 7 6 6 8 7 9 10 8 10 10 7 8 11 15 17 13 10 12 12 14 16 14 11 13 12 7 7 9 11 12 11 11 12 11 13 15 11 9 10 12 14 16 17 18 19 19 20 20 20 20 20 19 18
31 26 17 10 4 2 5 8 7 7 9 10 12 13 11 7 6 6 6 3 3 4 1 1 2 1 4 6 4 1 2 1 4 4 4 5 6 7 8 6 7 9 9 11 12 12 12 9 9 13 12 11 12 13 15 16 13 11 13 13 9 8 9 8 9 10 10 12 13 16 18 15 10 9 10 12 13 15 15 16 18 20 21 19 20 21 20 18
30 20 8 5 5 6 8 6 2 7 10 11 13 13 10 5 5 7 4 0 2 4 3 2 1 1 3 5 1 2 2 2 2 6 5 5 7 8 7 6 7 7 8 9 11 13 15 13 9 10 12 12 12 13 15 15 13 11 10 10 9 8 8 8 8 9 10 11 13 16 19 18 13 8 9 12 16 16 13 15 18 21 21 19 19 19 19 18
26 13 2 2 5 6 8 7 10 11 11 12 12 9 7 5 6 7 1 2 2 2 3 3 3 1 2 4 2 3 2 2 2 5 4 3 5 4 2 2 2 5 7 7 8 11 13 13 12 11 11 13 13 11 12 13 13 11 10 9 9 8 8 8 9 9 10 11 12 14 17 16 13 11 12 13 16 17 15 15 17 19 21 20 19 20 17 17
21 7 3 3 5 6 8 9 10 11 10 11 10 6 5 6 5 3 0 1 1 4 3 2 2 1 4 5 2 2 4 2 2 3 3 4 5 2 0 4 6 7 6 5 6 7 9 12 15 15 11 12 14 11 9 11 12 12 11 10 9 8 8 10 9 9 11 11 13 15 15 13 11 12 16 17 15 13 15 17 17 16 19 20 20 21 18 18
14 4 4 6 8 9 9 10 9 10 10 10 8 6 7 8 4 2 1 3 5 4 2 0 3 4 4 3 2 3 4 3 1 4 4 5 7 5 5 2 4 7 7 7 7 6 8 8 11 14 11 13 16 15 12 11 12 13 12 11 11 9 8 9 8 9 10 10 13 17 14 11 10 9 13 19 17 14 13 15 16 16 17 18 19 21 20 20
9 4 6 8 10 8 8 10 8 8 9 8 6 7 7 6 4 2 2 5 4 1 2 1 6 7 5 3 2 2 3 2 3 4 5 4 4 2 3 4 6 6 6 6 5 6 11 8 3 8 8 10 16 17 15 14 11 11 12 11 12 11 9 9 9 10 11 9 10 12 10 9 9 7 9 13 18 19 16 10 12 15 16 17 17 19 20 19
8 4 7 7 7 8 8 8 7 7 8 7 7 7 4 2 5 5 4 4 3 4 4 4 6 7 5 5 5 5 1 2 3 3 4 3 2 2 3 5 6 6 6 5 6 5 8 9 4 4 6 8 12 14 15 15 11 8 11 12 12 13 12 10 11 13 13 12 9 8 10 9 9 9 9 10 14 20 20 14 11 14 17 17 16 17 18 19
11 6 6 5 8 10 8 6 6 6 7 7 6 5 3 5 7 7 5 5 4 4 7 6 2 2 3 1 3 5 2 3 2 2 2 2 1 1 3 3 3 5 7 5 6 5 5 8 8 4 5 8 11 13 16 17 14 11 10 11 12 13 13 10 9 10 11 11 9 10 13 11 9 8 9 12 14 16 20 20 17 15 16 16 15 15 18 19
13 8 6 4 10 10 7 5 6 6 6 6 6 3 3 5 8 7 5 5 4 3 6 6 1 1 4 3 1 3 3 3 1 1 4 1 3 1 1 1 3 3 6 6 6 4 5 8 9 8 9 8 10 12 12 15 19 18 14 10 10 12 12 10 9 9 10 10 9 12 14 11 10 8 9 15 18 16 18 20 21 20 17 15 15 15 18 18
13 8 3 6 11 9 6 6 7 7 6 6 4 2 2 5 6 6 4 4 4 3 4 4 2 1 2 3 4 3 2 3 4 3 3 1 1 2 1 1 1 3 5 6 7 5 5 7 8 9 11 9 8 10 10 11 16 19 17 14 11 10 11 11 9 9 10 10 10 12 12 9 8 9 10 13 16 18 18 17 19 21 20 18 16 15 16 17
9 5 2 12 13 8 7 8 8 6 5 2 4 2 4 4 5 5 5 4 4 3 4 5 2 2 1 2 3 2 1 3 5 4 2 1 1 4 4 2 2 5 7 7 8 7 6 7 7 9 10 9 8 9 11 12 11 14 15 14 12 9 9 11 11 10 10 9 9 10 10 9 8 9 11 10 11 14 17 16 16 18 19 20 20 18 17 16
6 3 5 15 15 8 10 10 4 4 4 1 4 4 4 3 3 4 4 4 5 2 3 6 4 3 5 4 3 2 2 5 6 5 4 3 3 2 3 4 4 6 7 8 8 6 5 6 8 9 9 9 10 11 14 16 15 13 13 14 13 11 11 12 12 12 11 10 9 9 10 7 4 6 10 11 10 11 14 16 14 15 18 18 19 21 20 17
6 3 5 14 16 11 10 5 1 3 3 3 4 5 4 2 3 3 2 2 3 0 1 4 3 3 5 6 5 5 5 7 7 7 6 5 3 1 4 5 5 6 7 8 8 5 4 5 8 9 9 11 12 13 16 20 18 15 14 14 14 14 13 12 12 12 12 12 11 10 11 6 2 3 5 9 10 9 11 13 12 13 15 16 16 19 20 19
3 4 5 10 16 14 9 1 3 1 3 4 2 4 3 2 2 3 2 3 3 0 1 4 1 2 4 4 6 8 7 7 8 8 8 8 4 5 5 4 6 6 7 7 6 5 4 5 8 8 8 11 15 16 16 17 16 13 13 13 13 15 17 14 12 12 11 13 13 10 11 8 6 7 4 5 7 8 10 12 11 10 11 13 15 15 17 18
4 5 4 9 15 13 5 0 2 3 4 2 1 4 3 3 4 4 3 4 3 2 4 5 2 1 3 5 6 8 7 6 6 7 8 8 3 5 6 6 5 6 7 4 4 5 3 6 8 7 8 8 11 12 12 14 13 10 13 15 15 19 22 18 14 12 11 13 12 10 11 11 7 9 5 3 4 5 5 8 9 8 8 10 12 14 15 15
3 3 1 6 10 8 5 4 4 3 5 4 3 4 2 2 4 5 5 4 4 5 5 4 3 4 5 6 6 7 8 6 6 7 7 8 5 4 7 9 6 9 9 5 8 7 6 6 7 8 10 9 9 7 5 8 8 9 14 19 20 23 24 20 14 12 12 11 11 11 10 12 13 9 8 8 9 9 8 7 7 6 6 3 1 4 11 14
3 2 2 3 4 5 5 4 5 3 3 1 2 3 3 2 2 2 5 4 2 5 6 3 4 6 6 7 7 7 8 7 7 8 8 8 8 5 7 10 8 11 10 5 7 7 7 7 10 12 12 12 10 7 7 8 8 9 14 18 20 22 22 19 15 14 14 11 10 13 10 9 12 13 12 11 12 13 11 6 3 5 2 2 7 7 4 9
3 3 4 3 2 3 4 5 6 5 3 1 1 2 3 3 2 2 2 2 2 4 5 3 4 6 5 6 7 7 8 8 9 10 10 9 9 7 9 11 10 11 10 7 6 7 7 9 13 15 16 17 18 17 16 15 13 14 16 18 17 15 16 18 17 18 16 11 12 14 13 11 10 6 6 4 3 5 4 5 6 7 7 5 5 5 2 5
3 4 5 4 3 3 4 5 5 5 5 4 2 2 2 3 3 2 1 2 3 4 3 1 4 6 5 6 7 6 7 8 7 8 9 9 9 9 8 11 11 11 11 10 9 8 8 10 13 16 18 19 20 20 19 17 16 17 18 19 19 16 17 18 18 21 18 12 12 14 16 17 9 4 6 6 5 4 6 6 7 9 10 10 7 4 2 3
4 3 4 3 2 3 4 3 4 4 5 5 3 3 3 3 3 3 2 3 3 3 2 3 4 4 5 6 7 6 6 7 7 6 7 8 9 9 8 9 9 10 11 12 10 8 9 10 12 16 18 19 19 19 18 18 18 19 19 20 20 19 19 17 16 20 21 17 18 17 18 17 7 4 6 6 6 3 3 4 7 11 11 11 10 8 9 9
4 3 4 3 3 4 3 3 3 3 5 4 3 4 3 4 4 5 3 4 4 2 3 6 6 6 7 6 6 7 7 8 9 8 8 9 9 8 8 8 7 8 10 9 8 7 8 9 12 13 14 16 18 19 18 18 19 21 21 21 20 20 20 18 15 15 17 19 23 20 18 15 5 5 4 6 6 4 1 4 6 9 11 11 10 10 11 11
6 4 3 2 3 3 2 3 3 2 3 4 3 4 4 3 5 6 5 3 4 5 5 8 8 7 8 7 7 7 7 8 11 12 12 11 11 9 8 8 8 8 8 8 7 7 7 8 11 11 10 12 15 18 19 18 19 22 22 22 22 20 18 17 16 15 15 18 22 21 18 12 2 5 4 4 6 5 2 5 6 7 9 9 9 9 9 9
6 4 3 3 1 1 2 2 2 1 2 3 3 4 5 4 4 6 4 1 2 5 6 8 8 7 6 7 7 6 8 10 12 13 13 13 14 14 12 12 14 12 9 9 7 6 8 8 8 9 9 11 14 18 17 14 15 16 16 19 21 20 19 18 18 20 20 18 16 17 14 6 3 6 4 4 5 5 5 6 6 7 9 9 9 9 8 8
Wind_Direction
9 7 4 3 0 358 356 353 353 352 353 353 352 351 347 344 341 337 331 326 326 327 326 322 320 323 324 329 325 322 324 296 272 242 234 248 254 241 254 256 226 190 171 184 194 186 187 192 196 196 206 212 219 236 221 215 244 251 246 264 265 30 19 254 249 112 114 153 161 170 157 148 148 138 141 162 177 155 147 154 126 120 124 128 131 140 147 150
9 7 4 2 360 358 355 352 351 350 350 349 348 348 346 343 342 340 332 326 327 330 331 324 324 323 325 333 330 334 324 277 261 251 236 245 259 260 260 240 211 184 177 196 198 188 189 189 190 192 205 213 212 225 222 207 221 245 253 259 270 108 206 238 299 73 105 168 193 174 166 155 145 145 168 170 155 155 150 139 132 119 112 124 135 143 149 151
8 6 3 2 359 357 353 352 349 348 347 345 344 343 341 341 341 339 332 328 326 328 329 324 324 320 325 334 333 346 322 277 255 235 194 276 273 266 259 225 203 184 184 201 198 191 194 190 189 192 205 215 207 215 220 198 205 236 250 263 327 8 231 222 18 28 87 159 186 169 162 150 152 163 171 166 160 161 150 140 142 129 123 130 139 146 151 154
7 5 3 0 358 356 352 350 348 346 344 341 340 337 337 336 335 334 329 328 324 324 325 321 320 316 323 329 338 352 291 273 231 110 62 348 306 263 248 216 197 184 191 209 203 197 200 194 193 199 212 220 207 214 225 207 210 231 241 253 282 286 265 67 48 24 44 62 160 155 153 160 176 178 168 163 171 162 144 157 151 138 137 140 143 148 154 157
6 4 1 359 356 354 351 349 348 345 342 339 337 335 334 331 329 326 323 326 322 320 319 317 316 309 313 322 342 327 270 262 119 65 17 341 330 263 233 206 191 184 197 214 208 200 203 200 196 206 221 229 213 213 226 218 227 245 251 260 271 280 305 69 57 33 19 41 90 155 157 183 183 180 180 149 142 161 174 188 156 143 144 145 149 152 159 162
5 3 0 358 355 352 350 348 346 344 340 337 335 333 332 329 325 320 320 323 318 318 317 314 311 297 306 321 328 265 263 280 78 27 347 336 341 263 210 200 187 183 200 214 210 202 204 202 196 208 220 231 226 220 221 217 229 250 255 255 264 277 300 25 158 75 326 92 130 189 174 196 182 187 189 121 106 165 258 240 166 140 145 148 153 157 164 165
4 2 360 357 354 351 349 346 345 343 338 336 334 332 331 327 322 319 320 319 316 320 316 308 299 286 307 316 295 244 247 297 61 19 353 346 348 280 193 189 181 181 199 210 209 202 202 202 199 210 216 227 234 227 225 221 226 242 258 259 252 261 266 261 220 175 279 279 174 192 185 206 191 197 174 129 146 224 222 209 155 133 144 151 155 161 166 167
3 1 359 356 354 351 348 346 345 341 338 336 334 332 331 327 323 322 321 318 319 323 317 304 289 279 307 297 267 243 232 33 40 10 2 4 357 329 169 173 179 184 199 207 207 202 202 205 203 210 217 225 236 231 229 230 230 235 250 264 268 268 259 249 246 234 247 262 248 197 203 204 188 204 174 146 162 201 187 151 132 134 145 151 155 163 168 169
1 0 358 356 354 351 348 345 343 341 338 335 334 335 333 331 330 332 326 321 323 323 312 296 281 275 290 274 265 257 162 41 22 4 6 17 27 136 154 167 181 188 200 208 208 204 204 207 207 215 227 233 240 238 231 231 233 233 240 252 258 259 261 250 243 242 237 241 237 217 213 195 188 196 191 159 142 148 136 127 138 143 146 154 157 166 170 170
360 359 357 356 354 351 348 345 344 341 339 336 336 336 334 335 338 336 329 325 323 313 305 292 281 273 264 257 261 263 61 27 358 8 7 27 112 147 162 172 184 195 206 208 208 207 208 211 210 219 242 255 255 248 236 232 238 242 238 249 257 256 256 251 240 235 232 234 231 234 224 185 190 214 191 137 119 146 144 142 149 145 154 159 159 168 171 173
359 359 357 356 354 352 348 346 344 342 342 339 337 337 333 334 334 331 327 323 318 310 305 289 272 264 257 257 264 323 36 357 340 0 6 78 149 168 180 179 190 204 210 209 210 210 215 218 216 222 238 254 261 252 238 237 247 256 259 263 259 253 249 245 241 234 229 232 228 240 245 188 155 215 231 123 151 186 156 151 157 155 161 160 163 168 169 175
359 359 358 357 354 352 349 346 343 343 345 339 338 337 329 330 327 321 324 323 320 316 316 292 265 260 265 262 272 16 3 312 335 328 300 168 180 185 196 193 197 208 212 213 212 213 221 223 224 228 225 231 247 248 246 242 243 249 260 268 258 248 241 234 233 232 230 231 219 225 242 220 165 171 187 141 172 193 158 156 165 164 162 163 169 167 169 174
358 358 357 356 354 352 350 346 341 341 344 337 338 335 325 329 320 299 322 327 326 326 336 310 256 252 265 273 57 24 333 296 306 271 234 215 203 194 207 209 206 212 217 222 217 215 223 227 229 234 234 237 240 262 339 262 240 242 244 251 256 250 237 226 223 223 227 226 214 216 225 230 202 171 173 164 171 181 168 165 169 172 170 168 171 169 173 172
357 358 357 356 354 351 348 346 341 339 341 336 337 334 324 329 311 278 320 332 333 308 335 339 221 249 261 263 77 46 354 282 253 237 234 221 205 192 200 209 209 211 219 232 236 223 222 228 234 240 240 243 257 310 319 249 230 234 236 235 243 249 240 222 214 214 220 216 207 215 223 233 228 182 179 180 179 179 173 176 178 177 175 172 172 172 174 172
357 356 356 355 353 351 347 345 340 340 341 336 336 331 324 329 300 262 313 335 338 295 329 311 219 244 258 162 104 69 87 212 296 297 264 223 211 197 189 198 202 205 212 227 242 234 221 224 230 239 237 235 255 280 264 238 224 224 230 227 225 235 245 227 210 207 214 210 199 208 222 209 233 223 186 171 185 184 170 192 194 181 177 176 175 173 174 175
356 354 355 354 351 349 346 344 339 340 341 337 336 329 324 330 284 252 301 324 324 300 294 266 230 243 271 74 118 168 311 332 347 328 244 219 228 208 178 187 194 199 204 208 229 235 217 219 227 233 236 228 234 247 247 235 220 217 225 230 223 220 235 235 208 199 208 211 196 206 228 180 196 233 197 172 189 182 172 195 195 188 183 175 175 176 176 177
354 353 353 352 350 347 344 344 339 339 341 336 336 327 318 327 290 258 282 296 298 269 255 272 277 257 268 25 175 258 356 353 355 304 220 210 238 218 174 187 191 190 195 202 217 224 206 209 221 224 230 228 220 222 235 234 216 210 218 230 234 224 226 231 206 186 199 216 202 202 224 191 178 210 187 174 192 187 185 193 187 191 193 180 179 179 175 178
352 351 350 350 349 344 340 343 340 340 339 333 331 318 305 309 295 276 275 273 254 237 245 261 274 254 219 56 334 342 353 345 350 275 235 190 225 218 189 192 185 181 188 198 206 208 198 198 211 217 218 221 219 213 218 224 220 215 212 220 234 230 226 226 217 188 191 214 215 203 215 208 184 185 174 172 187 195 191 191 188 192 195 187 181 178 176 180
349 349 348 347 346 342 336 336 340 341 335 333 329 307 286 283 275 264 253 232 217 244 257 235 261 274 31 54 15 350 330 300 290 270 237 186 208 209 196 192 185 184 190 191 192 198 196 196 207 215 214 211 214 215 219 229 236 238 228 224 229 230 229 225 227 207 188 205 222 212 218 213 180 165 175 178 191 197 184 191 201 191 190 191 183 179 178 180
346 347 345 343 342 340 333 326 335 340 329 327 325 302 269 284 266 230 247 236 238 325 324 14 338 315 339 12 5 346 304 259 267 338 87 197 200 202 196 191 192 191 201 198 185 191 198 205 209 213 216 212 215 220 230 241 252 269 259 244 234 232 235 224 226 225 199 199 223 218 223 223 190 177 182 183 193 197 196 205 198 182 184 189 185 185 180 182
345 344 343 341 338 335 331 321 320 333 326 311 313 312 13 358 332 355 336 280 201 306 290 359 332 313 352 349 360 353 312 244 245 69 93 205 202 203 187 188 201 195 208 208 185 187 202 216 216 214 219 220 219 222 230 243 249 255 257 260 246 234 240 228 222 232 216 202 226 223 224 227 213 194 180 184 198 200 206 206 193 187 187 179 181 186 184 185
344 343 342 338 334 331 327 318 306 321 324 299 302 345 36 7 333 328 323 282 199 185 241 241 254 289 17 333 8 338 289 240 197 108 98 239 218 206 180 189 214 202 203 209 192 188 205 224 224 216 220 226 228 224 225 235 243 243 240 253 254 238 245 241 231 239 228 205 225 227 226 231 221 197 179 191 201 208 212 202 191 197 187 171 178 182 184 188
344 343 340 336 333 327 320 315 296 291 304 300 325 17 0 345 325 304 285 279 250 184 213 227 233 317 16 231 41 319 289 259 210 99 66 272 237 216 220 209 219 218 206 207 206 203 209 222 224 222 219 222 229 229 225 228 234 240 236 237 245 239 242 242 227 238 241 229 234 235 230 235 229 208 192 191 187 209 222 205 193 203 192 173 172 174 180 188
344 343 339 337 331 322 319 311 283 266 278 290 359 20 340 323 318 298 269 273 260 181 174 214 249 331 16 354 311 296 300 316 287 60 47 279 279 251 254 238 226 227 217 211 217 222 224 221 215 220 221 220 226 225 223 229 226 230 236 237 243 242 241 246 238 234 238 235 237 248 246 234 227 221 211 196 187 202 211 200 195 202 195 171 159 168 184 190
344 342 339 337 329 321 318 303 278 283 286 268 353 3 337 325 314 291 269 266 240 166 148 171 214 194 18 291 271 294 301 246 256 12 9 291 304 300 256 251 238 234 224 214 221 230 232 231 216 214 217 217 224 224 218 225 233 227 227 233 244 254 252 250 255 250 237 229 219 227 246 243 223 222 222 210 203 209 204 196 199 191 180 169 161 174 187 189
343 342 338 334 329 321 312 302 309 315 290 268 6 346 332 330 306 270 263 260 210 154 154 177 194 119 52 277 305 304 273 192 157 277 292 299 289 278 271 250 223 241 247 224 223 237 232 235 228 213 218 218 221 228 218 216 236 238 219 223 235 251 260 255 252 247 240 242 222 215 229 247 231 222 222 215 213 217 210 203 201 182 167 174 178 180 186 187
341 341 336 330 328 320 311 325 329 308 291 3 358 333 333 336 292 239 246 254 200 153 162 158 130 60 17 350 311 285 279 68 170 192 224 336 278 258 264 251 220 233 256 248 232 227 222 233 229 209 216 224 221 225 217 209 226 242 234 231 229 232 245 251 252 247 246 259 249 227 222 237 242 227 220 216 215 218 212 208 207 190 173 177 187 184 184 187
341 340 333 327 321 299 300 313 309 309 339 345 332 327 336 331 261 227 251 264 144 143 162 105 97 253 265 290 289 293 349 344 257 165 136 275 258 250 250 255 268 258 241 244 242 216 206 225 232 220 213 224 228 219 214 218 229 241 245 249 248 238 236 240 247 250 249 253 253 237 225 231 241 234 225 219 217 217 212 206 207 207 192 181 182 179 180 191
341 338 332 329 312 237 277 285 284 312 345 325 314 325 330 300 250 235 253 268 128 135 74 87 149 210 255 230 202 320 337 303 289 33 233 237 222 245 263 276 290 283 262 251 254 247 224 218 227 231 223 221 230 225 218 224 231 238 245 250 262 269 251 238 240 245 246 247 246 239 234 239 240 229 227 223 220 218 213 206 203 207 204 185 175 174 182 195
341 337 335 336 317 273 277 249 250 308 327 315 310 314 305 273 252 241 238 243 120 121 118 123 167 250 284 244 174 125 280 263 321 307 249 222 197 223 260 278 277 276 268 253 251 256 260 249 229 234 237 226 225 230 229 230 232 230 236 244 244 247 250 244 240 240 243 243 240 237 238 245 245 227 224 226 228 223 213 210 203 199 205 196 176 174 182 192
340 336 341 343 327 322 292 258 331 336 319 310 307 301 283 253 246 253 251 203 114 135 158 117 102 219 298 282 195 87 214 178 330 284 237 197 200 211 229 227 229 248 249 242 239 240 248 250 234 229 239 237 230 230 232 230 228 226 227 233 234 230 232 237 233 231 237 240 235 232 235 242 245 231 224 224 228 230 219 214 209 196 201 201 176 173 184 187
339 331 323 342 317 303 288 307 343 328 309 305 298 286 269 242 238 248 233 152 183 140 135 95 72 83 327 282 259 3 272 190 18 293 271 258 223 208 243 266 270 252 236 232 229 221 227 235 234 226 220 227 232 225 225 224 215 217 223 222 226 224 220 225 220 219 232 237 232 228 228 236 243 240 238 233 226 222 215 221 220 198 197 202 179 176 193 188
338 309 235 327 300 279 286 305 315 305 300 295 281 263 259 259 251 262 21 151 78 53 81 90 65 347 301 263 208 2 265 235 5 296 257 272 253 195 222 334 326 283 270 289 265 227 214 214 221 227 211 208 227 224 213 215 207 210 217 214 219 219 216 222 219 222 234 233 227 226 228 232 239 237 234 237 240 230 213 215 224 208 199 203 188 181 198 193
338 260 242 294 270 262 284 294 298 296 288 276 260 241 246 252 255 303 348 77 72 64 102 25 289 249 254 274 33 357 257 179 51 285 239 223 235 204 168 86 359 297 288 295 281 255 247 222 201 216 207 186 210 228 227 222 215 214 216 219 225 226 227 228 220 220 232 237 221 215 223 232 231 229 224 226 233 241 235 213 209 217 210 203 192 185 197 198
341 248 257 277 268 269 290 292 292 286 272 260 246 240 244 252 271 294 26 68 70 68 148 211 273 252 209 167 101 18 296 121 95 280 252 225 249 228 158 75 39 342 301 282 283 266 261 269 180 206 227 203 206 218 229 235 231 213 207 220 226 224 235 247 252 246 240 243 228 211 216 229 232 234 229 226 218 220 237 227 194 213 220 207 197 190 195 201
334 275 254 270 301 318 310 297 289 272 260 253 240 240 248 6 6 5 23 20 11 355 314 240 240 248 210 164 146 132 145 287 317 293 234 211 292 0 56 38 25 0 334 304 301 290 254 258 248 206 241 249 230 215 214 230 242 220 206 217 226 226 234 245 258 263 252 243 238 223 218 214 223 225 211 221 220 210 218 223 202 211 219 209 199 193 194 202
326 299 263 287 336 334 317 300 282 257 247 249 243 257 333 41 29 12 10 344 341 344 303 270 199 251 263 226 148 117 97 271 264 281 244 163 182 96 76 57 24 351 344 327 298 308 303 281 279 257 231 247 251 235 219 223 237 242 221 207 211 224 233 241 248 249 244 242 239 235 229 212 206 211 188 199 216 211 210 213 209 211 217 211 199 195 197 201
310 288 267 322 351 339 321 298 274 255 241 247 241 256 336 34 32 13 7 339 317 280 278 278 58 11 286 286 43 73 347 301 75 325 275 200 135 105 15 72 80 14 335 322 289 301 320 288 275 268 256 253 252 246 237 227 229 240 247 228 210 216 219 224 239 238 233 238 235 233 237 227 210 205 192 196 204 209 210 209 211 211 210 211 205 200 200 201
289 269 266 17 1 343 326 290 266 254 242 254 256 210 74 58 46 19 354 326 302 281 294 318 17 238 233 309 339 16 16 322 344 333 288 283 115 96 16 335 34 10 342 316 287 290 301 278 268 268 263 255 242 233 233 230 224 230 245 250 236 228 221 215 224 237 237 239 235 229 230 232 225 215 211 204 198 204 210 206 211 213 208 208 210 208 205 202
278 254 35 19 358 342 314 277 255 253 244 280 340 46 78 63 55 32 359 333 307 292 329 351 349 252 257 358 300 267 75 327 303 293 290 319 201 144 102 55 330 329 330 303 277 275 274 265 267 273 267 254 239 226 224 230 228 221 228 239 236 232 232 225 220 224 234 240 239 235 229 225 223 214 213 208 189 195 209 208 208 214 213 211 211 214 212 202
290 268 20 8 349 322 291 271 246 277 264 61 22 29 39 17 24 43 37 348 314 305 350 328 310 311 322 323 279 236 303 295 281 274 265 246 227 193 82 50 359 332 319 287 258 253 259 260 260 262 261 246 234 234 234 234 236 233 226 228 232 228 225 228 222 214 221 234 239 244 241 234 221 202 205 212 203 189 199 206 206 211 218 218 212 211 211 202
289 299 8 359 341 316 293 283 91 317 318 53 48 43 32 323 323 1 44 4 310 326 39 287 285 315 299 304 318 312 300 286 279 280 273 260 275 6 79 57 4 334 311 283 269 294 325 284 267 261 258 261 265 265 251 237 241 259 257 240 236 231 223 226 226 215 213 225 233 242 246 240 83 106 202 214 212 193 188 200 206 209 217 223 218 210 205 200
336 359 40 14 342 314 286 248 104 28 32 46 60 63 31 296 330 354 357 358 324 246 298 288 311 332 301 323 318 298 298 292 275 275 276 269 290 34 54 34 6 324 289 275 276 319 343 260 258 266 264 272 281 282 270 253 256 278 277 260 250 241 231 229 236 233 222 219 219 222 236 230 128 124 192 205 196 198 191 194 204 210 210 214 220 217 205 198
6 340 44 34 355 327 292 76 65 79 78 74 128 91 58 4 3 343 349 5 332 303 305 305 333 342 304 316 299 292 303 294 270 271 275 266 278 27 341 316 337 296 282 322 354 348 323 246 241 254 256 253 251 254 261 256 250 254 250 242 243 246 241 233 234 241 234 231 233 224 224 223 170 133 142 182 219 243 211 188 199 214 211 203 212 219 209 194
312 285 317 37 13 6 32 26 11 67 89 86 76 68 75 55 9 326 331 350 326 320 317 315 325 297 291 293 281 283 287 280 280 281 281 278 282 338 310 295 297 268 265 5 11 324 289 261 248 244 242 237 226 224 246 254 248 247 246 240 236 239 241 235 228 233 232 234 253 252 227 220 213 187 166 193 230 258 255 222 194 190 205 190 99 238 216 190
341 347 338 29 33 40 56 27 5 47 89 116 72 32 10 38 73 356 325 326 336 319 305 312 313 287 282 284 278 281 278 273 278 273 273 277 275 289 291 284 281 264 266 347 351 293 274 265 258 252 249 253 261 283 307 300 296 284 272 263 246 235 240 243 231 227 230 226 241 255 251 245 239 217 192 201 224 231 232 221 127 88 72 45 37 7 282 189
357 17 9 8 8 38 60 39 18 23 29 350 327 21 14 0 33 66 328 313 338 309 298 313 299 279 283 291 287 289 282 269 260 262 270 274 270 269 259 255 258 259 271 298 279 256 262 255 249 251 253 259 269 281 288 287 288 284 282 284 274 259 267 270 248 231 235 235 232 239 241 249 264 244 170 163 237 212 168 110 85 62 40 29 20 1 333 164
20 41 32 339 311 18 40 29 21 30 42 42 31 7 14 20 20 20 334 301 302 300 299 266 262 273 293 298 291 290 286 275 263 268 283 286 285 285 261 246 248 246 245 246 240 243 254 254 254 253 252 254 260 266 273 277 279 277 276 279 280 279 283 285 264 238 234 242 241 236 231 230 246 352 39 38 22 57 81 76 77 66 48 30 12 7 54 113
19 47 41 346 337 50 45 14 8 39 47 32 35 37 12 11 21 1 331 307 289 278 274 271 276 285 288 291 293 294 296 295 288 284 289 285 283 286 277 265 260 250 241 235 235 245 252 254 260 261 259 258 257 259 267 274 273 269 268 270 274 275 273 278 271 244 232 242 248 244 237 227 208 37 1 349 354 19 78 67 58 55 45 34 27 28 32 29
23 35 27 29 71 62 52 35 14 48 62 18 10 47 12 342 359 348 322 304 299 283 276 289 300 299 290 287 283 282 289 294 292 289 288 285 279 274 273 271 267 262 256 245 233 231 239 250 254 259 263 259 256 259 264 269 269 265 263 262 263 267 262 256 255 246 238 243 244 240 238 227 174 56 336 316 312 283 117 59 46 47 41 35 33 28 24 19
36 45 4 351 70 34 5 48 28 15 61 36 14 23 357 343 353 334 315 308 309 312 309 304 306 305 294 282 272 278 290 290 285 282 278 277 274 269 268 269 271 273 264 255 242 224 228 248 254 257 262 258 255 254 252 259 266 261 256 254 254 257 253 241 236 240 244 245 239 233 232 224 164 39 338 301 290 280 19 33 19 27 29 29 30 23 16 11
35 52 3 317 58 51 342 45 41 350 40 28 354 345 333 331 349 335 323 339 320 314 309 304 306 308 296 288 291 305 305 292 284 282 280 277 274 271 267 262 261 262 256 254 254 240 237 249 254 252 256 261 259 254 253 259 263 256 248 245 246 247 246 243 239 237 242 247 240 230 227 229 25 16 337 311 311 322 4 29 27 19 14 17 20 13 6 2
Height
817 815 813 810 808 806 804 802 800 798 797 796 794 793 792 790 789 788 786 784 783 781 780 779 778 777 776 775 774 773 772 772 772 771 769 765 763 763 763 763 763 764 766 766 765 765 764 764 763 763 764 762 763 760 755 755 755 759 769 776 779 786 787 783 773 761 765 766 757 750 745 750 754 751 747 749 751 750 753 751 747 749 749 753 760 766 771 777
817 815 812 810 808 805 804 801 800 798 797 795 793 793 791 790 788 787 785 783 782 781 780 778 777 777 775 775 774 773 772 772 771 767 764 763 763 762 762 762 763 764 764 765 762 761 762 762 761 762 763 763 761 758 756 754 756 763 768 769 768 779 779 764 750 744 757 766 757 749 743 746 750 750 746 751 757 752 757 757 752 756 756 756 762 768 773 776
817 815 812 810 807 805 803 801 799 798 796 794 793 792 790 789 788 786 785 783 782 781 780 778 777 776 775 774 773 772 772 770 767 763 761 761 761 760 760 761 761 762 763 762 760 759 759 759 759 761 763 763 759 756 758 754 757 761 763 769 766 766 760 745 739 738 743 750 752 746 740 745 746 743 744 752 757 753 758 759 757 765 765 763 764 768 773 776
817 815 812 810 807 805 803 801 799 797 795 794 792 791 789 788 787 786 784 783 781 780 779 778 776 776 775 774 773 772 772 769 762 758 759 760 759 758 758 759 760 761 762 761 760 759 757 757 757 759 762 764 757 755 759 755 756 756 757 765 760 753 750 741 738 738 735 736 742 739 741 750 743 736 742 753 762 762 760 755 754 763 765 766 766 768 773 775
817 815 812 809 807 805 802 801 799 797 795 793 792 790 788 787 786 784 783 782 781 779 778 777 776 775 774 773 773 772 772 770 759 754 758 758 756 755 755 757 758 760 761 761 760 757 757 755 757 760 763 764 759 758 760 751 750 755 753 750 746 744 748 743 736 738 737 735 739 739 746 751 740 736 740 753 769 769 762 752 748 753 759 764 766 769 773 774
818 815 812 809 806 804 802 800 798 797 795 793 791 789 787 786 784 783 782 781 780 778 777 776 776 774 774 773 772 773 772 766 756 755 757 756 755 753 753 755 756 760 762 762 757 756 756 755 759 765 765 763 760 759 758 748 748 758 753 742 741 740 744 743 736 739 737 737 745 744 743 740 740 743 739 752 765 759 757 751 744 749 755 761 764 769 774 774
818 815 812 809 806 804 801 800 798 796 794 792 790 788 787 785 783 782 780 779 778 777 777 776 775 774 774 773 773 772 768 760 753 756 756 754 754 751 752 754 756 760 761 760 756 755 756 757 762 763 764 765 760 755 753 747 747 758 756 743 739 738 740 739 735 739 737 739 741 738 737 737 744 745 738 754 760 751 755 750 742 748 754 760 765 769 773 775
817 815 812 809 806 803 801 799 797 796 794 792 790 788 786 783 781 780 779 778 777 777 776 775 775 774 773 773 772 767 761 756 754 757 756 755 754 751 753 755 757 759 759 758 753 753 755 758 760 759 764 763 755 753 750 750 751 755 756 746 739 738 737 735 735 737 738 738 734 735 741 740 740 741 740 753 757 750 747 743 744 751 756 761 766 770 773 776
817 814 811 808 805 803 801 799 797 795 793 791 789 787 785 782 780 779 778 777 776 776 775 774 774 773 774 773 769 764 758 756 756 757 756 756 755 753 754 756 758 758 757 756 752 752 754 757 757 754 759 756 750 751 748 755 757 750 750 746 741 741 736 734 737 737 738 737 733 739 744 739 736 741 747 749 750 749 743 746 750 753 761 764 766 769 771 775
817 814 810 808 805 802 800 798 797 795 793 791 789 786 784 782 780 779 778 777 776 776 775 774 773 773 773 771 768 764 757 756 757 757 757 757 756 756 756 756 758 757 756 754 751 751 751 753 751 747 751 751 750 750 748 753 751 741 743 744 741 741 736 735 738 736 737 736 734 742 744 741 739 744 754 749 745 748 749 753 752 755 763 764 766 768 770 774
817 813 810 807 804 802 800 798 796 795 793 790 788 786 784 782 780 779 778 777 776 775 774 773 772 773 772 769 766 761 756 757 758 757 757 757 756 757 756 756 758 757 755 752 751 750 749 748 745 747 754 753 751 751 747 745 743 740 743 746 744 741 738 736 739 737 737 738 734 738 741 741 746 753 756 750 747 749 753 758 756 758 762 762 766 767 769 773
817 814 810 807 804 802 800 798 796 794 792 790 788 785 783 782 780 779 778 776 775 774 773 772 772 772 771 767 762 758 757 757 757 757 757 756 756 756 756 756 756 756 754 751 751 750 750 747 745 752 753 751 754 755 748 739 741 744 744 754 751 743 742 738 738 736 737 740 731 736 751 753 756 759 753 749 749 748 752 760 759 759 761 763 765 765 768 771
816 813 810 807 804 802 800 798 796 794 792 789 787 785 783 781 780 779 777 776 774 773 772 772 771 771 771 765 758 757 758 757 757 757 756 756 756 755 756 756 756 756 754 751 750 750 751 748 747 751 746 749 754 748 744 739 743 748 747 755 756 751 748 735 732 734 736 737 726 737 767 769 756 753 749 748 750 751 757 761 762 762 761 762 764 765 767 768
816 813 810 807 804 801 799 797 795 794 791 789 786 784 782 781 779 778 777 776 774 773 772 771 771 771 770 762 756 758 758 757 757 755 755 755 754 754 755 755 755 756 755 753 751 750 751 749 748 749 746 748 747 741 747 748 746 751 752 754 757 761 751 729 725 733 737 732 721 738 773 775 757 750 749 747 748 753 762 763 763 764 762 761 762 765 766 766
816 813 810 806 804 801 799 797 795 793 791 788 785 784 782 780 779 778 777 775 774 773 772 771 771 769 766 759 755 757 756 755 755 754 755 754 753 752 753 754 755 755 755 755 753 751 751 750 751 755 752 747 746 752 759 755 748 750 759 761 756 758 749 727 719 726 735 730 720 740 771 772 758 750 745 746 751 754 764 770 765 764 762 761 761 763 766 765
815 812 809 806 804 801 799 796 794 793 790 787 785 783 781 779 778 777 777 775 774 773 772 771 768 766 765 758 754 754 754 753 753 754 754 753 752 750 751 753 753 754 755 755 755 752 750 751 753 755 755 752 755 762 763 759 755 750 756 761 752 751 750 734 718 714 724 728 725 738 757 762 758 750 742 744 749 754 765 771 767 763 760 759 761 761 763 764
815 812 809 806 803 801 799 796 794 792 789 786 784 782 780 779 777 776 775 774 774 772 772 769 764 764 762 754 753 755 754 753 754 754 753 753 752 750 750 752 751 753 754 755 755 753 752 754 757 756 755 756 755 761 769 769 762 752 751 754 746 742 745 740 726 713 717 727 731 736 743 750 752 745 741 744 746 751 760 762 762 765 762 758 758 758 760 762
815 812 809 806 804 801 799 796 794 792 789 786 783 781 779 778 777 776 774 773 773 772 772 768 765 768 765 756 756 758 754 754 754 753 752 752 752 751 750 750 749 752 755 757 756 756 756 756 759 761 760 759 755 758 770 766 753 750 749 751 747 738 737 738 729 716 717 727 732 736 741 742 742 739 739 741 744 750 754 757 762 765 764 760 755 756 758 759
814 811 809 806 804 801 799 797 794 792 789 785 782 781 778 776 776 774 772 770 770 771 770 766 763 768 766 759 757 756 754 754 753 751 750 751 752 750 748 748 749 752 758 761 759 756 757 759 761 765 762 758 754 751 755 748 738 740 739 741 745 740 734 729 721 710 712 729 733 734 740 737 737 739 739 740 741 744 753 762 764 760 759 757 754 754 755 758
814 811 808 806 803 801 799 797 795 793 790 785 781 777 776 776 774 771 769 765 765 766 765 763 761 761 761 758 756 755 754 753 751 749 750 750 750 749 748 748 750 753 757 758 759 753 753 763 763 760 756 750 748 745 743 738 733 736 737 737 736 737 733 722 717 707 702 725 733 728 735 734 736 741 737 739 740 742 757 765 755 752 757 755 753 753 753 756
813 810 807 805 803 800 798 797 795 793 790 786 781 777 778 780 778 776 773 766 762 763 763 761 761 760 759 758 757 756 755 753 749 748 751 750 748 751 750 750 755 758 753 749 751 750 753 763 757 749 746 741 741 741 741 741 738 741 744 742 736 735 731 716 715 709 697 720 733 724 732 735 735 739 732 733 742 745 755 758 748 748 755 751 751 754 753 754
813 810 806 804 801 799 797 796 794 792 789 786 782 780 781 784 783 782 780 773 764 761 763 761 760 759 757 757 757 757 757 756 752 748 750 749 747 752 751 751 756 754 748 745 749 755 760 759 748 739 738 737 738 737 740 744 743 744 745 747 744 734 729 720 715 710 701 718 733 726 732 733 725 729 734 735 737 738 739 742 744 748 751 749 749 753 754 755
813 809 806 803 800 798 796 794 793 791 789 785 782 782 783 784 784 782 782 777 767 761 761 761 761 760 759 758 757 757 757 755 755 750 749 750 747 748 750 752 753 749 746 746 749 757 761 752 740 734 734 738 742 738 741 745 746 747 745 749 748 734 734 735 724 717 708 713 725 726 730 729 718 720 731 730 730 736 733 727 731 738 744 746 745 748 753 756
812 808 806 802 800 797 795 793 791 789 788 785 782 784 784 784 784 782 781 775 767 760 759 760 759 760 761 759 757 757 757 754 754 752 749 750 748 748 749 748 749 748 744 743 744 749 749 738 730 733 735 739 744 743 744 749 749 747 743 745 746 734 733 734 724 719 716 714 719 728 737 732 721 723 726 721 725 736 732 724 728 734 736 737 739 745 750 754
810 808 804 802 799 796 794 793 789 786 786 783 782 784 783 784 782 782 781 774 766 760 760 761 760 760 760 759 758 755 755 755 753 752 750 749 750 751 750 744 746 749 742 739 743 745 741 729 724 733 737 737 744 745 744 749 750 747 741 739 740 735 732 730 726 726 735 735 724 732 756 746 721 722 723 715 719 725 722 725 732 734 732 732 739 746 748 751
809 806 803 801 798 795 793 789 786 785 782 780 783 784 782 783 781 781 782 774 764 761 763 762 760 761 760 759 756 753 758 758 751 750 750 750 750 751 753 746 742 747 739 734 739 740 735 727 725 734 738 738 744 745 740 743 752 750 736 730 734 736 736 734 732 736 747 746 723 722 752 754 728 720 716 710 716 717 715 719 722 727 730 731 736 742 744 746
808 805 802 800 797 796 792 788 787 785 780 781 784 784 782 782 780 781 783 777 765 759 760 760 759 762 761 758 754 756 765 760 750 750 750 751 750 749 756 750 742 744 736 735 745 740 733 732 731 733 739 742 744 745 738 738 752 749 728 724 732 736 741 740 737 741 741 737 726 716 730 748 740 721 708 706 715 716 714 715 715 719 726 730 732 736 739 741
806 803 800 798 796 796 794 791 789 784 783 785 784 784 782 781 781 780 784 783 767 755 756 758 759 760 757 756 754 756 759 755 755 755 748 750 751 749 756 751 744 742 734 742 753 737 728 737 736 733 741 744 740 737 734 736 746 740 725 725 728 731 738 738 739 742 736 739 745 727 720 743 746 721 704 704 713 718 715 714 715 714 718 725 730 733 736 739
805 801 799 797 795 795 794 793 790 786 786 786 784 784 781 781 780 777 783 782 762 754 759 758 759 760 756 755 757 757 755 754 758 753 746 749 749 749 754 748 745 745 737 741 747 735 726 728 729 730 737 740 735 731 730 735 739 732 726 727 729 733 735 737 741 741 740 750 755 736 724 741 743 721 710 710 712 715 711 707 709 709 710 716 724 730 735 737
803 799 797 796 794 794 793 791 790 788 787 786 785 783 780 780 780 781 787 776 756 756 759 756 759 761 758 757 758 759 758 758 756 750 748 749 747 749 748 744 746 749 744 741 741 736 726 719 721 726 729 729 730 729 726 727 729 727 731 735 737 740 739 740 739 739 751 759 750 735 726 734 741 726 712 710 706 701 701 702 702 703 705 708 716 725 731 734
801 798 797 796 794 794 791 787 787 788 788 787 785 782 779 779 778 782 781 762 753 761 759 759 762 761 760 761 759 759 760 759 757 754 751 748 749 750 748 748 750 752 751 747 742 737 732 729 726 723 722 722 728 731 726 722 724 730 737 741 748 749 746 750 747 746 764 764 742 729 724 730 742 729 707 700 695 688 691 696 696 699 703 703 709 718 723 726
799 797 796 796 795 794 791 787 787 789 788 786 784 780 779 782 779 774 765 753 760 765 759 763 766 762 764 763 762 763 761 760 759 757 754 751 750 748 750 754 754 759 759 747 740 737 733 731 726 722 720 722 731 737 733 727 727 735 740 745 758 763 762 769 764 757 762 754 732 723 725 731 733 717 700 694 688 683 684 688 687 691 698 699 704 713 714 715
798 796 795 795 793 793 792 790 789 789 787 786 784 778 780 788 779 761 751 753 764 764 759 765 765 765 767 764 764 765 762 762 761 759 757 755 753 751 754 756 755 762 760 747 741 737 734 729 724 726 724 721 728 737 741 736 732 738 741 746 760 767 774 780 770 760 756 742 724 718 723 732 727 708 696 691 684 677 676 679 679 681 688 692 696 705 708 708
796 794 794 793 792 791 790 789 789 788 787 785 782 779 785 789 772 752 750 756 762 763 763 767 766 766 767 765 766 766 764 765 763 761 759 756 756 753 755 760 760 759 757 754 747 739 742 737 723 724 723 720 726 729 730 730 729 732 730 736 748 751 760 766 757 754 752 736 722 720 726 731 725 705 687 682 681 676 672 671 673 677 679 682 687 696 703 702
795 793 793 791 790 789 788 788 787 787 786 782 780 781 784 780 764 753 756 760 762 765 765 767 768 767 766 766 769 767 768 768 763 762 759 755 755 751 752 762 765 763 762 763 753 740 746 739 718 715 714 714 724 722 718 725 730 725 720 733 741 733 738 744 736 730 730 730 723 718 719 713 702 689 677 676 678 677 676 671 673 681 678 678 683 690 696 697
795 793 792 790 788 787 787 787 785 785 784 780 781 780 773 769 765 762 764 765 766 769 768 767 767 767 763 763 767 768 770 768 764 763 758 756 757 755 760 767 768 768 769 770 762 751 753 741 717 717 719 715 719 718 717 727 731 721 721 733 729 716 724 738 738 722 719 732 724 709 710 704 696 692 680 679 681 678 680 678 679 683 678 677 682 684 689 692
795 792 790 788 786 786 786 785 784 784 781 778 781 778 765 764 769 768 769 769 768 771 773 770 767 768 766 763 764 768 770 766 764 766 761 760 763 763 767 772 771 772 772 774 769 757 758 752 726 722 731 722 713 714 715 717 721 721 722 721 715 715 721 731 744 739 734 742 727 707 707 707 711 709 690 686 690 683 681 681 681 682 680 678 679 680 683 684
796 792 789 786 785 785 784 784 783 780 778 778 779 773 765 768 773 772 772 772 771 772 775 771 768 771 772 769 766 768 771 769 766 769 765 762 767 769 769 772 774 775 773 775 774 760 762 767 743 727 734 727 715 721 726 717 713 717 712 703 710 730 736 735 745 748 746 749 735 716 708 702 705 704 692 691 694 687 682 681 681 682 681 680 678 678 679 679
795 790 785 784 785 784 783 783 781 777 776 777 775 770 769 773 776 776 775 774 774 775 775 772 772 775 773 773 773 771 774 776 771 772 769 765 771 773 772 775 776 775 774 776 776 766 764 775 762 735 727 729 724 728 737 730 717 713 711 706 706 717 725 729 734 736 739 744 737 725 718 707 693 684 682 685 684 682 682 680 680 679 677 678 678 676 676 677
791 786 783 784 784 783 783 781 777 773 773 774 774 771 772 776 778 779 778 777 777 777 778 777 776 777 774 775 777 773 776 780 776 775 774 769 772 775 774 779 780 779 777 776 776 772 768 775 773 750 732 735 736 729 729 731 724 720 721 720 715 712 713 717 718 719 727 736 735 730 724 706 679 666 671 675 672 675 677 676 677 674 671 672 673 673 673 673
788 785 784 783 783 783 781 777 775 771 767 770 775 777 778 781 781 781 781 781 779 777 780 782 780 780 780 778 775 772 776 781 777 776 774 769 771 775 776 780 783 782 781 778 774 772 771 773 772 761 748 743 736 722 717 720 719 718 718 716 717 717 717 725 727 715 713 724 726 726 725 699 664 653 660 665 666 668 668 670 672 670 668 667 665 667 668 669
786 785 786 784 783 781 779 776 774 772 769 774 781 783 787 787 784 783 782 782 782 780 781 782 780 782 783 780 776 775 778 781 778 776 773 768 768 775 780 783 783 783 784 781 771 766 771 775 773 766 755 743 731 721 716 714 712 715 714 709 710 712 713 727 732 716 710 717 714 717 724 699 661 652 658 661 661 661 663 666 667 666 665 662 660 659 660 664
785 784 783 785 783 779 778 779 776 777 781 785 786 788 790 788 785 785 785 784 784 783 784 781 779 784 785 782 784 784 783 784 783 780 776 773 773 777 781 782 783 785 784 781 774 771 776 779 779 773 759 745 737 729 721 717 719 727 724 715 715 713 706 710 714 706 708 713 710 721 731 705 669 659 660 659 659 660 660 661 663 664 662 660 659 657 656 660
790 787 782 784 784 776 775 778 776 780 788 789 788 791 792 791 790 789 788 790 788 785 787 785 784 789 790 788 790 791 789 791 789 783 780 780 779 781 781 780 784 787 783 781 782 784 785 781 779 782 776 765 756 747 740 731 728 732 726 718 718 713 705 705 704 705 710 707 705 721 729 703 672 663 664 664 666 665 660 658 659 661 660 658 658 656 654 657
791 791 785 783 783 778 779 780 776 781 792 794 794 795 795 796 799 796 793 794 793 790 792 791 789 791 792 791 794 794 793 796 795 789 787 786 784 784 784 783 787 786 783 786 789 790 791 785 781 784 784 776 765 760 758 748 737 733 724 716 716 713 710 708 707 715 721 713 710 718 715 693 671 665 670 674 675 674 667 659 657 659 659 659 660 658 655 655
791 793 790 785 783 782 785 785 779 783 792 797 798 798 798 800 801 800 800 800 798 796 796 795 795 796 796 795 798 799 796 797 800 798 796 796 792 790 790 789 789 788 786 789 792 793 794 789 784 783 780 771 761 758 760 757 755 751 739 728 722 716 712 710 710 714 714 712 717 713 703 696 685 673 675 678 677 675 670 663 663 664 663 662 664 664 658 655
795 798 800 799 795 789 789 791 789 788 791 794 799 801 802 802 802 803 804 803 803 801 800 800 801 801 802 802 803 805 802 800 801 801 799 797 794 792 791 790 790 790 790 792 793 794 796 792 784 781 780 772 764 760 760 760 762 759 750 741 732 725 724 725 719 709 704 715 722 708 697 704 698 683 682 684 679 675 672 670 672 672 670 668 668 667 663 659
800 804 805 808 807 801 801 802 800 797 795 797 802 804 804 805 807 808 807 804 804 803 804 808 806 803 804 806 808 808 806 803 801 800 801 800 797 794 791 787 787 788 790 792 791 791 793 790 780 776 773 767 763 760 758 759 760 756 752 747 740 735 734 734 724 708 705 718 719 703 697 702 699 693 694 692 685 681 680 678 676 676 677 677 675 672 669 667
808 810 807 807 809 809 810 808 803 801 803 805 808 809 809 810 810 810 808 807 807 805 806 809 807 805 806 807 808 809 807 806 805 803 803 803 802 800 796 791 787 787 787 787 787 787 790 788 782 777 771 763 759 757 754 757 757 755 751 746 741 738 733 730 722 709 707 714 709 701 700 700 700 703 700 694 689 684 682 683 682 684 687 686 684 682 681 680
817 818 815 811 810 811 810 808 805 804 806 810 812 813 814 814 813 811 808 808 810 807 806 809 808 807 807 807 808 809 806 806 807 805 803 804 803 801 799 794 789 787 788 786 783 786 791 791 784 779 775 767 760 756 756 757 757 754 751 744 740 738 734 728 722 714 714 716 708 705 707 703 702 704 699 696 692 686 686 691 691 692 694 694 693 692 692 692
822 823 822 818 816 816 813 809 809 808 808 814 817 816 816 816 816 815 810 807 810 810 809 810 810 807 806 805 806 806 803 802 803 801 798 799 799 795 794 792 788 789 792 788 783 784 790 790 783 781 784 775 763 758 756 754 753 751 748 743 740 738 733 727 722 719 721 719 713 713 713 706 703 704 702 700 698 693 695 700 699 697 698 699 700 700 699 699
825 824 824 821 818 817 815 811 811 811 814 818 820 818 818 815 814 817 815 809 808 810 809 809 809 809 807 806 804 803 801 800 799 795 792 791 790 787 787 786 784 786 788 786 784 783 784 787 785 786 789 780 765 757 751 752 760 755 742 736 735 732 730 727 722 717 714 713 714 712 707 703 704 707 707 707 705 703 703 704 704 704 702 701 702 702 702 702